Location: Fort Worth, Tx
(32.7431°N, 97.3695°W)
Time: 05:49:37
(UTC-05:00)

Altair - Pass Details

Date: 04 October 2023
Orbit: 1501 x 1682 km, 47.2° (Epoch: 06 December)

Event Time Altitude Azimuth Distance (km) Brightness Sun altitude
Rises 05:05:40 0° 269° (W) 4,758 - -41.7°
Reaches altitude 10° 05:09:02 10° 277° (W) 3,801 - -41.1°
Exits shadow 05:17:45 40° 341° (NNW) 2,257 8.2 -39.4°
Maximum altitude 05:18:00 40° 345° (NNW) 2,257 8.3 -39.4°
Drops below altitude 10° 05:27:17 10° 52° (NE) 3,923 10.3 -37.6°
Sets 05:30:49 0° 60° (ENE) 4,925 11.1 -36.9°
